Location: Juniper Campground
(35.7953°N, 106.2814°W)
Time: 03:58:14
(UTC-06:00)

Envisat - Visible Passes

Search period start: 22 October 2018 00:00
Search period end: 01 November 2018 00:00
Orbit: 764 x 766 km, 98.2° (Epoch: 22 October)

Date Brightness Start Highest point End Pass type
(mag) Time Alt. Az. Time Alt. Az. Time Alt. Az.
22 Oct 3.7 19:21:34 10° SE 19:25:58 31° ENE 19:30:24 10° N visible
22 Oct 5.0 21:00:46 10° SSW 21:04:57 26° W 21:09:09 10° NW visible
23 Oct 4.6 18:47:04 10° E 18:49:37 14° ENE 18:52:10 10° NNE visible
23 Oct 3.4 20:23:04 10° S 20:28:04 62° W 20:33:06 10° NNW visible
24 Oct 3.0 19:46:27 10° SSE 19:51:22 56° ENE 19:56:20 10° N visible
24 Oct 5.8 21:28:07 10° WSW 21:30:42 14° W 21:33:17 10° WNW visible
25 Oct 4.0 19:10:50 10° ESE 19:14:52 25° ENE 19:18:56 10° NNE visible
25 Oct 4.5 20:49:09 10° SSW 20:53:42 33° W 20:58:15 10° NNW visible
26 Oct 3.0 20:11:49 10° S 20:16:53 80° WSW 20:21:58 10° NNW visible
27 Oct 3.2 19:35:29 10° SE 19:40:14 44° ENE 19:45:02 10° N visible
27 Oct 5.4 21:16:00 10° SW 21:19:25 18° W 21:22:52 10° NW visible
28 Oct 4.2 19:00:15 10° ESE 19:03:48 20° ENE 19:07:22 10° NNE visible
28 Oct 4.1 20:37:41 10° S 20:42:28 43° W 20:47:17 10° NNW visible
29 Oct 2.8 20:00:39 10° SSE 20:05:42 80° ENE 20:10:47 10° N visible
30 Oct 3.5 19:24:36 10° SE 19:29:07 34° ENE 19:33:40 10° N visible
30 Oct 5.1 21:04:09 10° SSW 21:08:09 23° W 21:12:10 10° NW visible
31 Oct 4.5 18:49:52 10° E 18:52:45 15° ENE 18:55:38 10° NNE visible
31 Oct 3.6 20:26:19 10° S 20:31:15 55° W 20:36:14 10° NNW visible
